Stations météo

réclame
Mon MeteoGroup
Brindisi, Italie (16320): Température de l'air & dewpoint: 15.10.2017 16:00:00 - 21.10.2017 16:00:00 (CEST)Brindisi, Italie (16320): Vitesse du vent: 15.10.2017 16:00:00 - 21.10.2017 16:00:00 (CEST)Brindisi, Italie (16320): Direction du vent: 15.10.2017 16:00:00 - 21.10.2017 16:00:00 (CEST)Brindisi, Italie (16320): reduced air pressure: 15.10.2017 16:00:00 - 21.10.2017 16:00:00 (CEST)Brindisi, Italie (16320): visibility: 15.10.2017 16:00:00 - 21.10.2017 16:00:00 (CEST)Brindisi, Italie (16320): Ensoleillement: 15.10.2017 16:00:00 - 21.10.2017 16:00:00 (CEST)
Date & Time tt [°C] td [°C] ff [km/h] ff [knt] dd ppp [hPa] vv [km] sd [min]
21.10.2017 16:00:00 - - - - - - - -
21.10.2017 15:00:00 21,0 18,0 26 14 NNW - 10 -
21.10.2017 14:00:00 21,2 17,6 26 14 NW 1021,1 10 60
21.10.2017 13:00:00 21,0 18,0 26 14 NW - 10 -
21.10.2017 12:00:00 20,0 17,0 26 14 NW - 10 -
21.10.2017 11:00:00 19,6 16,8 22 12 NW 1022,1 10 60
21.10.2017 10:00:00 19,0 17,0 16 9 NNW - 8 -
21.10.2017 09:00:00 16,0 15,0 16 9 W - 3,0 -
21.10.2017 08:00:00 15,0 14,2 15 8 W 1021,2 2,5 0
21.10.2017 07:00:00 15,0 14,0 11 6 W - 2,5 -
21.10.2017 06:00:00 15,0 14,0 11 6 WSW - 4,0 -
21.10.2017 05:00:00 15,2 14,9 11 6 W 1021,2 5 -
21.10.2017 04:00:00 15,0 15,0 11 6 WNW - 5 -
21.10.2017 03:00:00 16,0 15,0 11 6 W - 5 -
21.10.2017 02:00:00 16,0 15,7 9 5 W 1021,3 5 -
21.10.2017 01:00:00 16,0 16,0 11 6 W - 5 -
21.10.2017 00:00:00 17,0 16,0 11 6 W - 5 -
20.10.2017 23:00:00 17,0 16,4 4 2 W 1021,0 5 -
20.10.2017 22:00:00 19,0 18,0 11 6 NNW - 7 -
20.10.2017 21:00:00 19,0 18,0 4 2 NNW - 7 -
20.10.2017 20:00:00 19,0 17,8 8 4 NNW 1020,3 7 -
20.10.2017 19:00:00 19,0 17,0 5 3 N - 7 -
20.10.2017 18:00:00 19,0 17,0 4 2 N - 7 -
20.10.2017 17:00:00 20,0 18,0 8 4 N 1020,1 8 12
20.10.2017 16:00:00 21,0 19,0 13 7 N - 8 -
20.10.2017 15:00:00 20,0 18,0 16 9 N - 8 -
20.10.2017 14:00:00 20,0 17,8 9 5 N 1020,1 8 54
20.10.2017 13:00:00 20,0 17,0 13 7 N - 8 -
20.10.2017 12:00:00 20,0 18,0 13 7 N - 6 -
20.10.2017 11:00:00 18,6 16,6 9 5 N 1020,1 6 48
20.10.2017 10:00:00 18,0 16,0 5 3 N - 4,0 -
20.10.2017 09:00:00 14,0 13,0 2 1 W - 1,5 -
20.10.2017 08:00:00 13,8 13,2 8 4 W 1019,3 0,1 0
20.10.2017 07:00:00 14,0 13,0 15 8 WNW - 0,8 -
20.10.2017 06:00:00 16,0 16,0 8 4 S - 5 -
20.10.2017 05:00:00 16,2 16,2 8 4 SSE 1019,3 6 -
20.10.2017 04:00:00 16,0 16,0 5 3 SE - 6 -
20.10.2017 03:00:00 16,0 16,0 8 4 SE - 7 -
20.10.2017 02:00:00 17,0 17,0 11 6 SSE 1019,3 7 -
20.10.2017 01:00:00 17,0 17,0 9 5 SSE - 7 -
20.10.2017 00:00:00 17,0 17,0 11 6 SSE - 7 -
19.10.2017 23:00:00 17,4 17,4 15 8 SSE 1019,3 7 -
19.10.2017 22:00:00 17,0 17,0 9 5 SSE - 7 -
19.10.2017 21:00:00 18,0 18,0 15 8 SSE - 8 -
19.10.2017 20:00:00 19,0 17,7 13 7 SSW 1018,4 10 -
19.10.2017 19:00:00 20,0 16,0 13 7 SW - 10 -
19.10.2017 18:00:00 21,0 17,0 18 10 SW - 10 -
19.10.2017 17:00:00 22,0 19,2 16 9 E 1018,3 10 60
19.10.2017 16:00:00 22,0 19,0 9 5 SE - 10 -
19.10.2017 15:00:00 22,0 19,0 26 14 E - 10 -
19.10.2017 14:00:00 22,2 16,5 21 11 E 1019,0 10 60
19.10.2017 13:00:00 22,0 19,0 21 11 E - 10 -
19.10.2017 12:00:00 19,0 18,0 9 5 NE - 6 -
19.10.2017 11:00:00 18,6 17,6 9 5 NNE 1019,4 5 0
19.10.2017 10:00:00 17,0 16,0 0 0 N - 1,1 -
19.10.2017 09:00:00 16,0 15,0 2 1 SW - 0,1 -
19.10.2017 08:00:00 15,0 15,0 4 2 SW 1018,2 0,1 0
19.10.2017 07:00:00 15,0 15,0 4 2 W - 0,2 -
19.10.2017 06:00:00 14,0 14,0 9 5 SW - 0,5 -
19.10.2017 05:00:00 15,0 15,0 11 6 SSE 1018,2 1,5 -
19.10.2017 04:00:00 15,0 15,0 11 6 SSW - 1,5 -
19.10.2017 03:00:00 15,0 15,0 9 5 SW - 0,8 -
19.10.2017 02:00:00 18,0 18,0 4 2 S 1018,2 0,8 -
19.10.2017 01:00:00 18,0 18,0 0 0 N - 4,0 -
19.10.2017 00:00:00 18,0 18,0 4 2 SSW - 4,0 -
18.10.2017 23:00:00 18,0 18,0 4 2 S 1018,2 4,0 -
18.10.2017 22:00:00 18,0 18,0 4 2 SSE - 4,0 -
18.10.2017 21:00:00 18,0 18,0 5 3 SSE - 5 -
18.10.2017 20:00:00 19,0 18,2 9 5 SSE 1018,2 5 -
18.10.2017 19:00:00 19,0 18,0 8 4 SSE - 6 -
18.10.2017 18:00:00 20,0 18,0 11 6 E - 6 -
18.10.2017 17:00:00 21,0 19,3 15 8 E 1018,0 8 60
18.10.2017 16:00:00 21,0 19,0 15 8 ENE - 8 -
18.10.2017 15:00:00 21,0 19,0 11 6 NE - 8 -
18.10.2017 14:00:00 21,0 19,3 13 7 NNE 1019,2 8 60
18.10.2017 13:00:00 21,0 19,0 9 5 NNE - 8 -
18.10.2017 12:00:00 20,0 18,0 11 6 N - 7 -
18.10.2017 11:00:00 19,0 17,3 8 4 NNW 1020,2 5 30
18.10.2017 10:00:00 19,0 17,0 9 5 NW - 3,0 -
18.10.2017 09:00:00 17,0 16,0 9 5 WNW - 0,6 -
18.10.2017 08:00:00 17,0 15,5 8 4 W 1020,2 0,3 0
18.10.2017 07:00:00 17,0 16,0 8 4 W - 0,1 -
18.10.2017 06:00:00 16,0 15,0 11 6 W - 0,1 -
18.10.2017 05:00:00 16,2 14,5 9 5 W 1021,3 0,6 -
18.10.2017 04:00:00 16,0 14,0 9 5 W - 0,6 -
18.10.2017 03:00:00 15,0 13,0 5 3 SW - 0,5 -
18.10.2017 02:00:00 15,0 13,4 8 4 WSW 1021,8 0,5 -
18.10.2017 01:00:00 15,0 13,0 8 4 SW - 1,2 -
18.10.2017 00:00:00 16,0 14,0 4 2 W - 1,8 -
17.10.2017 23:00:00 16,8 15,2 4 2 W 1022,3 2,0 -
17.10.2017 22:00:00 17,0 15,0 5 3 W - 2,4 -
17.10.2017 21:00:00 17,0 16,0 5 3 W - 3,0 -
17.10.2017 20:00:00 18,0 16,3 4 2 NW 1022,5 3,5 -
17.10.2017 19:00:00 18,0 16,0 5 3 N - 4,0 -
17.10.2017 18:00:00 20,0 18,0 5 3 N - 4,0 -
17.10.2017 17:00:00 20,4 18,9 11 6 N 1023,1 6 60
17.10.2017 16:00:00 21,0 20,0 13 7 N - 6 -
17.10.2017 15:00:00 21,0 20,0 15 8 N - 8 -
17.10.2017 14:00:00 21,4 19,9 15 8 N 1024,7 8 60
17.10.2017 13:00:00 21,0 20,0 15 8 N - 8 -
17.10.2017 12:00:00 21,0 20,0 18 10 N - 8 -
17.10.2017 11:00:00 20,2 18,7 18 10 NNW 1025,7 7 60
17.10.2017 10:00:00 19,0 18,0 13 7 N - 7 -
17.10.2017 09:00:00 19,0 18,0 11 6 N - 6 -
17.10.2017 08:00:00 18,0 16,2 9 5 NNW 1025,0 3,0 0
17.10.2017 07:00:00 18,0 16,0 13 7 NNW - 2,0 -
17.10.2017 06:00:00 18,0 16,0 13 7 NNW - 2,0 -
17.10.2017 05:00:00 17,8 16,1 11 6 NNW 1025,8 3,0 -
17.10.2017 04:00:00 15,0 13,0 9 5 N - 3,0 -
17.10.2017 03:00:00 - - - - - - - -
17.10.2017 02:00:00 15,0 13,4 9 5 WNW 1026,3 3,0 -
17.10.2017 01:00:00 15,0 14,0 8 4 W - 3,0 -
17.10.2017 00:00:00 16,0 15,0 5 3 W - 2,0 -
16.10.2017 23:00:00 17,6 15,9 9 5 WNW 1026,3 2,0 -
16.10.2017 22:00:00 19,0 17,0 9 5 NNW - 2,0 -
16.10.2017 21:00:00 19,0 17,0 9 5 NNW - 2,0 -
16.10.2017 20:00:00 19,0 17,3 9 5 NNW 1026,2 2,0 -
16.10.2017 19:00:00 19,0 18,0 8 4 NNW - 2,0 -
16.10.2017 18:00:00 20,0 18,0 13 7 NNW - 2,0 -
16.10.2017 17:00:00 20,8 19,1 18 10 NNW 1026,2 6 60
16.10.2017 16:00:00 21,0 19,0 22 12 NNW - 6 -
16.10.2017 15:00:00 21,0 19,0 22 12 NNW - 7 -
16.10.2017 14:00:00 21,0 19,3 28 15 NNW 1027,0 6 42
16.10.2017 13:00:00 21,0 19,0 26 14 NNW - 6 -
16.10.2017 12:00:00 21,0 19,0 24 13 NNW - 6 -
16.10.2017 11:00:00 20,4 18,4 21 11 NNW 1027,6 6 60
16.10.2017 10:00:00 20,0 18,0 26 14 NNW - 7 -
16.10.2017 09:00:00 19,0 17,0 26 14 NW - 7 -
16.10.2017 08:00:00 18,8 16,6 22 12 NNW 1026,3 6 0
16.10.2017 07:00:00 19,0 16,0 21 11 NNW - 4,0 -
16.10.2017 06:00:00 19,0 16,0 22 12 NNW - 4,0 -
16.10.2017 05:00:00 18,6 15,8 22 12 NNW 1026,3 4,0 -
16.10.2017 04:00:00 18,0 15,0 16 9 NNW - 4,0 -
16.10.2017 03:00:00 18,0 16,0 21 11 NNW - 5 -
16.10.2017 02:00:00 18,6 16,0 21 11 NNW 1026,7 5 -
16.10.2017 01:00:00 19,0 16,0 16 9 NNW - 5 -
16.10.2017 00:00:00 19,0 16,0 13 7 N - 5 -
15.10.2017 23:00:00 18,8 16,2 15 8 NNW 1027,0 5 -
15.10.2017 22:00:00 19,0 16,0 16 9 NNW - 5 -
15.10.2017 21:00:00 19,0 16,0 18 10 NNW - 5 -
15.10.2017 20:00:00 18,8 16,4 22 12 NNW 1026,3 5 -
15.10.2017 19:00:00 19,0 16,0 21 11 NNW - 5 -
15.10.2017 18:00:00 19,0 17,0 26 14 NNW - 6 -
15.10.2017 17:00:00 20,6 17,4 34 18 NW 1026,3 6 24
15.10.2017 16:00:00 21,0 17,0 26 14 NNW - 7 -

tt = Température de l'air
td = dewpoint
ff = Vitesse du vent
dd = Direction du vent
ppp = reduced air pressure
vv = visibility
sd = Ensoleillement

stations d'obs. à proximité